TimeCST,TemperatureF,Dew PointF,Humidity,Sea Level PressureIn,VisibilityMPH,Wind Direction,Wind SpeedMPH,Gust SpeedMPH,PrecipitationIn,Events,Conditions,WindDirDegrees,DateUTC
12:52 AM,9.0,3.0,77,29.72,-9999.0,North,15.0,-,N/A,,Unknown,350,2014-01-30 06:52:00
1:52 AM,8.1,1.9,76,29.75,-9999.0,North,18.4,-,N/A,,Unknown,350,2014-01-30 07:52:00
2:52 AM,6.1,1.0,80,29.77,-9999.0,North,12.7,-,N/A,,Unknown,350,2014-01-30 08:52:00
3:52 AM,6.1,-0.0,76,29.79,-9999.0,North,13.8,-,N/A,,Unknown,360,2014-01-30 09:52:00
4:52 AM,3.9,-2.0,76,29.83,-9999.0,North,16.1,-,N/A,,Unknown,350,2014-01-30 10:52:00
5:52 AM,1.9,-2.9,80,29.88,-9999.0,NNW,16.1,-,N/A,,Unknown,340,2014-01-30 11:52:00
6:52 AM,-0.9,-6.0,79,29.92,-9999.0,NNW,15.0,-,N/A,,Unknown,330,2014-01-30 12:52:00
7:52 AM,-2.0,-7.1,79,29.94,-9999.0,NNW,15.0,-,N/A,,Unknown,330,2014-01-30 13:52:00
8:52 AM,-0.9,-7.1,75,29.97,-9999.0,NW,16.1,-,N/A,,Unknown,320,2014-01-30 14:52:00
9:52 AM,-0.0,-6.0,76,30.00,-9999.0,NW,19.6,-,N/A,,Unknown,320,2014-01-30 15:52:00
10:52 AM,-0.0,-7.1,72,30.02,-9999.0,NW,27.6,33.4,N/A,,Unknown,320,2014-01-30 16:52:00
11:52 AM,-0.0,-8.0,69,30.05,-9999.0,NNW,24.2,-,N/A,,Unknown,330,2014-01-30 17:52:00
12:52 PM,1.0,-7.1,69,30.05,-9999.0,NW,25.3,-,N/A,,Unknown,320,2014-01-30 18:52:00
1:52 PM,1.0,-8.0,66,30.05,-9999.0,NW,21.9,31.1,N/A,,Unknown,320,2014-01-30 19:52:00
2:52 PM,1.0,-7.1,69,30.04,-9999.0,NW,19.6,28.8,N/A,,Unknown,320,2014-01-30 20:52:00
3:52 PM,1.9,-6.0,69,30.05,-9999.0,NW,19.6,-,N/A,,Unknown,320,2014-01-30 21:52:00
4:52 PM,1.9,-6.0,69,30.05,-9999.0,NW,18.4,-,N/A,,Unknown,310,2014-01-30 22:52:00
5:52 PM,-0.9,-7.1,75,30.07,-9999.0,NW,15.0,-,N/A,,Unknown,320,2014-01-30 23:52:00
6:52 PM,-2.0,-8.0,76,30.08,-9999.0,NW,12.7,-,N/A,,Unknown,310,2014-01-31 00:52:00
7:52 PM,-4.0,-9.9,76,30.11,-9999.0,NW,16.1,-,N/A,,Unknown,310,2014-01-31 01:52:00
8:52 PM,-4.0,-11.9,69,30.11,-9999.0,WNW,13.8,-,N/A,,Unknown,300,2014-01-31 02:52:00
9:52 PM,-6.0,-13.0,72,30.11,-9999.0,WNW,6.9,-,N/A,,Unknown,290,2014-01-31 03:52:00
10:52 PM,-7.1,-14.1,72,30.11,-9999.0,Variable,3.5,-,N/A,,Unknown,0,2014-01-31 04:52:00
11:52 PM,-9.0,-14.1,79,30.10,-9999.0,West,5.8,-,N/A,,Unknown,270,2014-01-31 05:52:00